Satellite: FO-70
Catalog number: 37380
Epoch time:      12179.47554455
Element set:    0223
Inclination:      071.9743 deg
RA of node:       289.8278 deg
Eccentricity:    0.0018623
Arg of perigee:   295.0880 deg
Mean anomaly:     064.8372 deg
Mean motion:   14.76843679 rev/day
Decay rate:       2.08e-06 rev/day^2
Epoch rev:           03750
Checksum:              341

Satellite: ALMASAT-1
Catalog number: 38078
Epoch time:      12180.40188671
Element set:     337
Inclination:      069.4963 deg
RA of node:       291.8543 deg
Eccentricity:    0.0758813
Arg of perigee:   234.7198 deg
Mean anomaly:     118.0673 deg
Mean motion:   14.09454130 rev/day
Decay rate:     1.2016e-04 rev/day^2
Epoch rev:            1913
Checksum:              311

Satellite: XATCOBEO
Catalog number: 38082
Epoch time:      12180.41768838
Element set:     351
Inclination:      069.4955 deg
RA of node:       289.7003 deg
Eccentricity:    0.0736145
Arg of perigee:   233.5108 deg
Mean anomaly:     119.6046 deg
Mean motion:   14.16750061 rev/day
Decay rate:     2.7905e-04 rev/day^2
Epoch rev:            1918
Checksum:              309

/EX
SB KEPS @ AMSAT  $ORB12180.W
Orbital Elements  12180.WEATHER

HR AMSAT ORBITAL ELEMENTS FOR WEATHER SATELLITES
FROM WA5QGD FORT WORTH,TX June 28, 2012
Send SUBSCRIBE KEPS/UNSUBSCRIBE KEPS to majordomo at amsat.org only
BID: ORB12180.W
TO ALL RADIO AMATEURS BT

Satellite: NOAA-10
Catalog number: 16969
Epoch time:      12179.81387686
Element set:    0978
Inclination:      098.5795 deg
RA of node:       208.6787 deg
Eccentricity:    0.0011706
Arg of perigee:   199.9976 deg
Mean anomaly:     160.0726 deg
Mean motion:   14.27560152 rev/day
Decay rate:       1.03e-06 rev/day^2
Epoch rev:           34138
Checksum:              357

Satellite: NOAA-11
Catalog number: 19531
Epoch time:      12180.38802658
Element set:     972
Inclination:      098.7315 deg
RA of node:       265.3115 deg
Eccentricity:    0.0010845
Arg of perigee:   188.1641 deg
Mean anomaly:     171.9375 deg
Mean motion:   14.14970707 rev/day
Decay rate:      -2.32e-06 rev/day^2
Epoch rev:           22609
Checksum:              304

Satellite: NOAA-12
Catalog number: 21263
Epoch time:      12179.92691770
Element set:    0469
Inclination:      098.7286 deg
RA of node:       201.5416 deg
Eccentricity:    0.0013893
Arg of perigee:   166.3394 deg
Mean anomaly:     193.8164 deg
Mean motion:   14.25503169 rev/day
Decay rate:        3.0e-08 rev/day^2
Epoch rev:           09808
Checksum:              320

Satellite: MET-3/5
Catalog number: 21655
Epoch time:      12179.78447370
Element set:    0001
Inclination:      082.5569 deg
RA of node:       144.7018 deg
Eccentricity:    0.0012123
Arg of perigee:   298.2990 deg
Mean anomaly:     061.6908 deg
Mean motion:   13.17034715 rev/day
Decay rate:       3.78e-06 rev/day^2
Epoch rev:           00304
Checksum:              293

Satellite: MET-2/21
Catalog number: 22782
Epoch time:      12179.71383151
Element set:    0457
Inclination:      082.5466 deg
RA of node:       024.1604 deg
Eccentricity:    0.0023841
Arg of perigee:   121.0052 deg
Mean anomaly:     239.3454 deg
Mean motion:   13.83684258 rev/day
Decay rate:       -8.0e-08 rev/day^2
Epoch rev:           95062
Checksum:              289

Satellite: OKEAN-4
Catalog number: 23317
Epoch time:      12179.95617072
Element set:    0959
Inclination:      082.5396 deg
RA of node:       021.1376 deg
Eccentricity:    0.0020472
Arg of perigee:   320.9640 deg
Mean anomaly:     039.0096 deg
Mean motion:   14.83820591 rev/day
Decay rate:       3.05e-06 rev/day^2
Epoch rev:           95640
Checksum:              302

Satellite: NOAA-14
Catalog number: 23455
Epoch time:      12179.94488824
Element set:    0951
Inclination:      098.8274 deg
RA of node:       263.3089 deg
Eccentricity:    0.0008706
Arg of perigee:   293.0376 deg
Mean anomaly:     066.9874 deg
Mean motion:   14.13904971 rev/day
Decay rate:       -5.2e-07 rev/day^2
Epoch rev:           90231
Checksum:              339

Satellite: NOAA-15
Catalog number: 25338
Epoch time:      12179.86928436
Element set:    0314
Inclination:      098.6907 deg
RA of node:       166.6760 deg
Eccentricity:    0.0011683
Arg of perigee:   078.3716 deg
Mean anomaly:     281.8785 deg
Mean motion:   14.25086288 rev/day
Decay rate:        7.0e-07 rev/day^2
Epoch rev:           73437
Checksum:              348

Satellite: RESURS
Catalog number: 25394
Epoch time:      12180.43100994
Element set:     122
Inclination:      098.3195 deg
RA of node:       168.0757 deg
Eccentricity:    0.0001027
Arg of perigee:   159.6428 deg
Mean anomaly:     200.4801 deg
Mean motion:   14.24289769 rev/day
Decay rate:       -3.4e-07 rev/day^2
Epoch rev:           72600
Checksum:              284

Satellite: FENGYUN1
Catalog number: 25730
Epoch time:      12180.50042908
Element set:     637
Inclination:      098.8467 deg
RA of node:       139.2843 deg
Eccentricity:    0.0019548
Arg of perigee:   335.4205 deg
Mean anomaly:     024.6031 deg
Mean motion:   14.09628211 rev/day
Decay rate:       9.02e-06 rev/day^2
Epoch rev:           67620
Checksum:              286

Satellite: OKEAN-0
Catalog number: 25860
Epoch time:      12179.91673767
Element set:    0673
Inclination:      097.9366 deg
RA of node:       142.3404 deg
Eccentricity:    0.0000872
Arg of perigee:   108.4132 deg
Mean anomaly:     251.7172 deg
Mean motion:   14.74226442 rev/day
Decay rate:       1.96e-06 rev/day^2
Epoch rev:           69615
Checksum:              311

Satellite: NOAA-16
Catalog number: 26536
Epoch time:      12179.87325121
Element set:    0799
Inclination:      099.0931 deg
RA of node:       222.1609 deg
Eccentricity:    0.0011157
Arg of perigee:   057.2595 deg
Mean anomaly:     302.9616 deg
Mean motion:   14.12753991 rev/day
Decay rate:       2.36e-06 rev/day^2
Epoch rev:           60654
Checksum:              315

Satellite: NOAA-17
Catalog number: 27453
Epoch time:      12179.76980766
Element set:    0752
Inclination:      098.3345 deg
RA of node:       206.2716 deg
Eccentricity:    0.0012577
Arg of perigee:   122.7081 deg
Mean anomaly:     237.5304 deg
Mean motion:   14.24449813 rev/day
Decay rate:       -1.1e-07 rev/day^2
Epoch rev:           52026
Checksum:              304

Satellite: NOAA-18
Catalog number: 28654
Epoch time:      12179.76823568
Element set:    0230
Inclination:      099.0465 deg
RA of node:       137.9440 deg
Eccentricity:    0.0014933
Arg of perigee:   122.3144 deg
Mean anomaly:     237.9476 deg
Mean motion:   14.11666288 rev/day
Decay rate:       -1.0e-08 rev/day^2
Epoch rev:           36605
Checksum:              317

Satellite: NOAA-19
Catalog number: 33591
Epoch time:      12179.77845785
Element set:    0422
Inclination:      098.8639 deg
RA of node:       119.4361 deg
Eccentricity:    0.0014325
Arg of perigee:   355.7090 deg
Mean anomaly:     004.3963 deg
Mean motion:   14.11352719 rev/day
Decay rate:       -7.0e-07 rev/day^2
Epoch rev:           17450
Checksum:              317

/EX
SB KEPS @ AMSAT  $ORB12180.M
Orbital Elements  12180.MISC

HR AMSAT ORBITAL ELEMENTS FOR MANNED AND MISCELLANEOUS SATELLITES
FROM WA5QGD FORT WORTH,TX June 28, 2012
Send SUBSCRIBE KEPS/UNSUBSCRIBE KEPS to majordomo at amsat.org only
BID: ORB12180.M
TO ALL RADIO AMATEURS BT

Satellite: HUBBLE
Catalog number: 20580
Epoch time:      12179.15382168
Element set:      25
Inclination:      028.4684 deg
RA of node:       078.3233 deg
Eccentricity:    0.0003142
Arg of perigee:   151.0542 deg
Mean anomaly:     209.0221 deg
Mean motion:   15.02575545 rev/day
Decay rate:       6.66e-06 rev/day^2
Epoch rev:            1623
Checksum:              256

Satellite: ISS
Catalog number: 25544
Epoch time:      12180.89865916
Element set:     830
Inclination:      051.6400 deg
RA of node:       063.8440 deg
Eccentricity:    0.0008358
Arg of perigee:   100.3910 deg
Mean anomaly:     009.0971 deg
Mean motion:   15.55839748 rev/day
Decay rate:      8.912e-05 rev/day^2
Epoch rev:           77983
Checksum:              317

Satellite: CO-58
Catalog number: 28895
Epoch time:      12179.56411465
Element set:     211
Inclination:      097.9108 deg
RA of node:       045.3800 deg
Eccentricity:    0.0019172
Arg of perigee:   117.6708 deg
Mean anomaly:     242.6472 deg
Mean motion:   14.60656053 rev/day
Decay rate:       3.66e-06 rev/day^2
Epoch rev:           35517
Checksum:              314

Satellite: FALCON
Catalog number: 30776
Epoch time:      12179.52036952
Element set:     377
Inclination:      035.4336 deg
RA of node:       213.7284 deg
Eccentricity:    0.0001277
Arg of perigee:   108.4604 deg
Mean anomaly:     251.6251 deg
Mean motion:   15.07631276 rev/day
Decay rate:      1.269e-05 rev/day^2
Epoch rev:           29181
Checksum:              290

Satellite: MAST
Catalog number: 31126
Epoch time:      12179.95707179
Element set:    0499
Inclination:      097.8731 deg
RA of node:       190.4275 deg
Eccentricity:    0.0095038
Arg of perigee:   077.1200 deg
Mean anomaly:     284.0596 deg
Mean motion:   14.54177465 rev/day
Decay rate:       2.59e-06 rev/day^2
Epoch rev:           27583
Checksum:              333

Satellite: CAPE1
Catalog number: 31130
Epoch time:      12179.58886372
Element set:    0503
Inclination:      097.8823 deg
RA of node:       186.4561 deg
Eccentricity:    0.0102916
Arg of perigee:   091.3617 deg
Mean anomaly:     269.9387 deg
Mean motion:   14.52960476 rev/day
Decay rate:       3.17e-06 rev/day^2
Epoch rev:           27528
Checksum:              330

